[[{"header":{"parameterUnit":"m.s-1","parameterCategory":1,"la1":30.2991,"la2":30.254,"lo1":-89.0895,"lo2":-89.0444,"dy":0.0017,"dx":0.0017,"nx":28,"ny":28,"refTime":"2025-04-18T21:00:00:Z","depth":0,"parameterNumber":2,"parameterNumberName":"U-component_of_WINDS"},"data":[0,0,0,0,0,0,0,0,0,0,0,0,0,0,0,0,0,0,0,0,0,0,0,0,0,0,0,0,0,0,0,0,0,0,0,0,0,0,0,0,0,0,0,0,0,0,0,0,0,0,0,0,0,0,0,0,0,0,-4.2244,-4.2245,0,-4.2345,-4.2347,-4.2348,-4.2355,-4.2354,-4.2353,-4.2352,-4.2454,-4.2458,-4.2461,0,0,0,0,0,0,0,0,0,0,0,0,0,-4.2056,-4.2059,-4.2244,-4.2245,-4.2246,-4.2345,-4.2347,-4.2348,-4.2356,-4.2354,-4.2353,-4.2352,-4.2453,-4.2457,-4.2462,0,0,0,0,0,0,0,0,0,0,0,0,0,-4.2145,-4.206,-4.2244,-4.2262,-4.2265,-4.2345,-4.2347,-4.2348,-4.2356,-4.2354,-4.2353,-4.2351,-4.2451,-4.2457,-4.2462,-4.253,0,0,-4.2479,-4.2482,0,0,0,0,0,0,0,0,-4.214,-4.2152,-4.2258,-4.2261,-4.2264,-4.2336,-4.2318,-4.2409,-4.2356,-4.2321,-4.2352,-4.235,-4.2416,-4.2424,-4.2447,-4.2535,-4.2539,-4.248,-4.2483,-4.2486,-4.2487,0,0,0,0,0,0,0,-4.2134,-4.2148,-4.2284,-4.226,-4.2263,-4.2265,-4.2276,-4.2335,-4.2377,-4.2324,-4.2325,-4.2337,-4.2417,-4.2442,-4.2449,-4.2541,-4.248,-4.2485,-4.2488,-4.249,-4.2689,-4.2691,0,0,0,0,0,0,-4.2124,-4.2142,-4.2281,-4.2287,-4.2197,-4.227,-4.2282,-4.2315,-4.2376,-4.2384,-4.2338,-4.2337,-4.2433,-4.2443,-4.2453,-4.2535,-4.2486,-4.2491,-4.2494,-4.2687,-4.2689,-4.2691,0,0,0,0,0,0,-4.212,-4.2137,-4.2277,-4.2215,-4.2233,-4.2275,-4.2311,-4.2318,-4.2342,-4.2387,-4.2394,-4.2355,-4.2432,-4.2445,-4.2511,-4.2539,-4.2493,-4.2499,-4.2685,-4.2688,-4.269,-4.2701,0,0,0,0,0,0,-4.2115,-4.2135,-4.2161,-4.2216,-4.2236,-4.2333,-4.2313,-4.2321,-4.2352,-4.2351,-4.2405,-4.2412,-4.2432,-4.2502,-4.2516,-4.2546,-4.2503,-4.2682,-4.2686,-4.269,-4.2698,-4.2704,-4.2709,0,0,0,0,0,-4.2108,-4.216,-4.2163,-4.2179,-4.227,-4.2335,-4.2346,-4.2368,-4.2354,-4.238,-4.241,-4.241,-4.2535,-4.2509,-4.2525,-4.2556,-4.2681,-4.2685,-4.2689,-4.2696,-4.2703,-4.2709,0,0,0,0,0,0,-4.2107,-4.2167,-4.2171,-4.2242,-4.2283,-4.2336,-4.237,-4.2375,-4.2421,-4.2418,-4.2443,-4.2455,-4.252,-4.2545,-4.2516,-4.2625,-4.2606,-4.2614,-4.2606,-4.2612,-4.2618,-4.2609,-4.2508,0,0,0,0,0,-4.2115,-4.2163,-4.2213,-4.2271,-4.2292,-4.2328,-4.2356,-4.237,-4.2413,-4.243,-4.2464,-4.2506,-4.2554,-4.2585,-4.2632,-4.2703,-4.2714,-4.2733,-4.2738,-4.2742,-4.2747,-4.2786,-4.2794,-4.2706,-4.2706,-4.2705,0,0,-4.2132,-4.2171,-4.22,-4.2272,-4.2305,-4.2354,-4.2342,-4.2394,-4.2429,-4.2438,-4.2502,-4.2529,-4.2577,-4.2645,-4.2677,-4.2668,-4.2775,-4.2748,-4.2751,-4.2754,-4.2791,-4.28,-4.2807,-4.2709,-4.2708,-4.2708,0,0,-4.2187,-4.2222,-4.2274,-4.2308,-4.2359,-4.2383,-4.2396,-4.2448,-4.2466,-4.2531,-4.2538,-4.2582,-4.2665,-4.2698,-4.2726,-4.2796,-4.2798,-4.2811,-4.2837,-4.2874,-4.2881,-4.2887,-4.291,-4.2919,-4.2817,-4.2817,-4.2817,0,-4.2201,-4.2274,-4.2299,-4.2351,-4.2382,-4.2394,-4.2446,-4.2478,-4.2542,-4.2563,-4.2553,-4.2658,-4.2691,-4.2767,-4.2784,-4.2807,-4.2821,-4.2803,-4.2878,-4.2885,-4.2891,-4.2913,-4.2922,-4.2818,-4.2818,-4.2818,-4.2818,0,-4.2288,-4.234,-4.2375,-4.2437,-4.2473,-4.2524,-4.2556,-4.259,-4.2601,-4.2626,-4.2691,-4.2732,-4.2787,-4.2807,-4.2819,-4.2885,-4.2878,-4.2873,-4.2854,-4.29,-4.2921,-4.293,-4.282,-4.2819,-4.2819,-4.2819,0,0,-4.2342,-4.2419,-4.2431,-4.2459,-4.2518,-4.2557,-4.261,-4.2665,-4.2692,-4.2736,-4.278,-4.2851,-4.2847,-4.2879,-4.2894,-4.2928,-4.2978,-4.2919,-4.292,-4.2926,-4.3052,-4.3054,-4.3063,-4.2982,-4.2983,-4.2985,-4.3048,0,-4.2402,-4.2495,-4.252,-4.2599,-4.2646,-4.2659,-4.2705,-4.2745,-4.277,-4.2813,-4.2841,-4.289,-4.2882,-4.2902,-4.2935,-4.2965,-4.3003,-4.2961,-4.3021,-4.3022,-4.3005,-4.3075,-4.3076,-4.3133,-4.3056,-4.3058,-4.3059,0,-4.2483,-4.253,-4.2613,-4.2666,-4.2686,-4.2727,-4.2779,-4.2821,-4.2867,-4.2883,-4.292,-4.2933,-4.2987,-4.2968,-4.3043,-4.3013,-4.304,-4.3058,-4.3061,-4.3065,-4.3041,-4.3078,-4.3152,-4.316,-4.3073,-4.3071,-4.3071,0,-4.2511,-4.2595,-4.2656,-4.268,-4.2743,-4.2771,-4.2799,-4.2844,-4.2875,-4.2922,-4.2942,-4.2994,-4.3022,-4.3061,-4.3088,-4.3071,-4.316,-4.3143,-4.3174,-4.3173,-4.3189,-4.3187,-4.3266,-4.3211,-4.3211,-4.3211,-4.321,0,-4.2573,-4.2623,-4.2669,-4.2706,-4.2763,-4.2791,-4.2847,-4.2875,-4.2915,-4.2957,-4.2973,-4.3012,-4.3046,-4.309,-4.3112,-4.317,-4.3183,-4.3196,-4.3201,-4.3193,-4.3191,-4.3209,-4.3204,-4.3213,-4.3212,-4.3212,-4.3211,0,-4.2613,-4.2646,-4.2712,-4.2768,-4.2783,-4.2822,-4.2869,-4.2905,-4.2932,-4.2985,-4.3,-4.3041,-4.3094,-4.3125,-4.3192,-4.3206,-4.327,-4.3274,-4.3254,-4.3255,-4.3283,-4.3279,-4.3374,-4.3387,-4.3325,-4.3326,-4.3326,0,-4.2649,-4.2688,-4.2747,-4.2777,-4.2805,-4.2853,-4.2886,-4.2916,-4.2949,-4.3006,-4.3035,-4.3089,-4.3133,-4.3217,-4.3253,-4.3304,-4.3308,-4.3338,-4.3315,-4.3306,-4.3306,-4.3302,-4.3305,-4.334,-4.3341,-4.3341,-4.3341,0,-4.2708,-4.2723,-4.2769,-4.2822,-4.286,-4.2903,-4.2945,-4.2969,-4.3007,-4.3043,-4.3097,-4.3132,-4.3201,-4.3253,-4.3308,-4.3336,-4.3345,-4.3349,-4.3358,-4.3349,-4.3335,-4.3341,-4.3261,-4.3346,-4.3345,-4.3345,-4.3345,-4.3344,-4.2746,-4.278,-4.2828,-4.2879,-4.2915,-4.2954,-4.2991,-4.3023,-4.3069,-4.3127,-4.3143,-4.3199,-4.3246,-4.332,-4.335,-4.3394,-4.3389,-4.3403,-4.3406,-4.3409,-4.3408,-4.3331,-4.3405,-4.3404,-4.3404,-4.3404,-4.3404,0,-4.2804,-4.2836,-4.2883,-4.2942,-4.2982,-4.2989,-4.3036,-4.3069,-4.3119,-4.3162,-4.3206,-4.3268,-4.332,-4.3361,-4.3414,-4.3442,-4.3447,-4.3455,-4.3451,-4.3458,-4.3411,-4.3396,-4.345,-4.3449,-4.3449,-4.3449,-4.3449,-4.3449,-4.2839,-4.2898,-4.2918,-4.2995,-4.3027,-4.3083,-4.3109,-4.3146,-4.318,-4.3249,-4.3292,-4.3319,-4.3361,-4.3418,-4.3466,-4.3476,-4.3494,-4.3501,-4.3511,-4.3466,-4.3461,-4.3456,-4.3442,-4.3505,-4.3505,-4.3555,-4.3555,-4.3555]},{"header":{"parameterUnit":"m.s-1","parameterCategory":1,"la1":30.2991,"la2":30.254,"lo1":-89.0895,"lo2":-89.0444,"dy":0.0017,"dx":0.0017,"nx":28,"ny":28,"refTime":"2025-04-18T21:00:00:Z","depth":0,"parameterNumber":3,"parameterNumberName":"V-component_of_WINDS"},"data":[0,0,0,0,0,0,0,0,0,0,0,0,0,0,0,0,0,0,0,0,0,0,0,0,0,0,0,0,0,0,0,0,0,0,0,0,0,0,0,0,0,0,0,0,0,0,0,0,0,0,0,0,0,0,0,0,0,0,3.7129,3.713,0,3.7244,3.7245,3.7247,3.7287,3.7287,3.7286,3.7286,3.7399,3.7402,3.7406,0,0,0,0,0,0,0,0,0,0,0,0,0,3.694,3.6944,3.7129,3.713,3.7132,3.7244,3.7245,3.7247,3.7287,3.7287,3.7286,3.7286,3.7398,3.7402,3.7406,0,0,0,0,0,0,0,0,0,0,0,0,0,3.7035,3.6945,3.7128,3.7165,3.717,3.7244,3.7245,3.7247,3.7287,3.7287,3.7286,3.7286,3.7397,3.7402,3.7407,3.7451,0,0,3.7422,3.7424,0,0,0,0,0,0,0,0,3.703,3.7042,3.7158,3.7163,3.7168,3.7251,3.7221,3.7315,3.7288,3.7243,3.7286,3.7285,3.735,3.7359,3.7382,3.7456,3.7461,3.7423,3.7426,3.7428,3.7429,0,0,0,0,0,0,0,3.7023,3.7037,3.7174,3.716,3.7166,3.7175,3.7188,3.7239,3.7298,3.7246,3.725,3.7263,3.7352,3.7377,3.7385,3.7462,3.7422,3.7427,3.743,3.7432,3.7581,3.7581,0,0,0,0,0,0,3.7011,3.7032,3.717,3.7178,3.7096,3.7179,3.7193,3.7225,3.7298,3.7308,3.7263,3.7264,3.7368,3.7379,3.7389,3.7447,3.7428,3.7433,3.7436,3.758,3.7581,3.7582,0,0,0,0,0,0,3.7007,3.7023,3.7166,3.7106,3.7125,3.7183,3.7218,3.7227,3.7252,3.7311,3.7321,3.7278,3.7368,3.7381,3.7436,3.7451,3.7435,3.744,3.7579,3.758,3.7581,3.7561,0,0,0,0,0,0,3.7001,3.7021,3.7039,3.7106,3.7128,3.7212,3.7219,3.723,3.7261,3.7263,3.7327,3.7336,3.7369,3.7428,3.7441,3.7458,3.7444,3.7578,3.7579,3.7581,3.7561,3.7562,3.7563,0,0,0,0,0,3.6994,3.7027,3.704,3.7056,3.7151,3.7213,3.7225,3.7263,3.7262,3.728,3.7319,3.7334,3.7447,3.7433,3.7448,3.7466,3.7577,3.7579,3.7581,3.756,3.7562,3.7563,0,0,0,0,0,0,3.6959,3.7037,3.7051,3.7107,3.7153,3.7219,3.7243,3.7262,3.7308,3.7308,3.7352,3.7366,3.7417,3.7447,3.743,3.7514,3.7513,3.7518,3.7492,3.7494,3.7495,3.7486,3.7448,0,0,0,0,0,3.6958,3.7002,3.7067,3.711,3.7133,3.7184,3.7212,3.7238,3.7286,3.7305,3.7347,3.7393,3.7439,3.7468,3.7513,3.7566,3.758,3.7586,3.7587,3.7587,3.7591,3.7622,3.7626,3.7588,3.7588,3.7588,0,0,3.6955,3.7003,3.7028,3.7104,3.7143,3.7187,3.72,3.7246,3.7279,3.7312,3.7367,3.7399,3.7453,3.7507,3.7532,3.7533,3.7605,3.759,3.7589,3.7593,3.7624,3.7628,3.7631,3.759,3.7589,3.7589,0,0,3.6974,3.7014,3.7056,3.7095,3.7154,3.7189,3.7198,3.7263,3.7286,3.7342,3.7368,3.7408,3.7485,3.7524,3.7553,3.7588,3.7605,3.7602,3.7606,3.7636,3.7639,3.7642,3.7655,3.7659,3.7605,3.7605,3.7605,0,3.6963,3.7032,3.7074,3.712,3.7153,3.7187,3.7229,3.7264,3.7334,3.7356,3.7356,3.7457,3.7495,3.7559,3.7568,3.759,3.7603,3.7594,3.7635,3.7639,3.7642,3.7655,3.766,3.7605,3.7605,3.7605,3.7605,0,3.7016,3.7064,3.709,3.716,3.7195,3.7239,3.7287,3.7318,3.7341,3.7375,3.7432,3.7479,3.7536,3.7553,3.7574,3.762,3.762,3.7627,3.7627,3.7644,3.7657,3.7663,3.7603,3.7604,3.7604,3.7604,0,0,3.7014,3.7109,3.7117,3.715,3.7219,3.7257,3.7301,3.7359,3.7385,3.7433,3.7472,3.7538,3.7547,3.758,3.7606,3.7632,3.7659,3.7637,3.7639,3.764,3.7714,3.7708,3.7713,3.7671,3.7672,3.7673,3.771,0,3.7042,3.7126,3.7166,3.7232,3.7277,3.7311,3.7351,3.7397,3.743,3.7473,3.7509,3.7556,3.7563,3.7584,3.7611,3.765,3.7674,3.7648,3.7707,3.7708,3.7693,3.772,3.7714,3.7746,3.7715,3.7716,3.7716,0,3.7086,3.7136,3.7207,3.7273,3.7294,3.7328,3.7385,3.7426,3.7479,3.7501,3.754,3.7566,3.7614,3.7611,3.7679,3.766,3.7686,3.7709,3.7711,3.7718,3.7713,3.7728,3.7757,3.7762,3.7725,3.7724,3.7724,0,3.7079,3.7164,3.7218,3.7245,3.7323,3.7347,3.738,3.7433,3.7465,3.7515,3.7536,3.759,3.7619,3.7659,3.7699,3.7693,3.7763,3.7762,3.7782,3.7781,3.7795,3.7794,3.7829,3.7812,3.7812,3.7812,3.7811,0,3.7106,3.7148,3.7216,3.7249,3.7298,3.7344,3.739,3.7426,3.7473,3.7513,3.7545,3.7582,3.7632,3.7675,3.7706,3.7758,3.777,3.779,3.7798,3.7787,3.7785,3.7805,3.7804,3.7813,3.7813,3.7812,3.7812,0,3.7106,3.7153,3.7214,3.7284,3.7303,3.7335,3.7395,3.7428,3.7464,3.7514,3.7529,3.7585,3.7637,3.7681,3.7749,3.777,3.7824,3.7833,3.7807,3.7811,3.7829,3.7827,3.7879,3.7888,3.7864,3.7864,3.7864,0,3.712,3.7154,3.7228,3.7259,3.7292,3.734,3.7375,3.7421,3.7455,3.752,3.7545,3.7601,3.7648,3.773,3.7776,3.7828,3.7839,3.7854,3.7847,3.7836,3.784,3.7838,3.7842,3.7854,3.7854,3.7854,3.7854,0,3.7142,3.7164,3.7213,3.7271,3.7312,3.7359,3.7406,3.7429,3.7484,3.7521,3.7576,3.7613,3.7684,3.7739,3.7797,3.783,3.7851,3.7856,3.7864,3.7853,3.7837,3.7847,3.7809,3.7855,3.7854,3.7854,3.7854,3.7854,3.715,3.7182,3.724,3.7294,3.7336,3.738,3.7416,3.7457,3.7505,3.7568,3.7592,3.7649,3.7703,3.7784,3.7817,3.7862,3.7864,3.7875,3.7878,3.788,3.7879,3.783,3.7872,3.7872,3.7872,3.7872,3.7872,0,3.7174,3.7213,3.7263,3.733,3.7373,3.7391,3.7446,3.748,3.753,3.7579,3.7625,3.769,3.7743,3.7794,3.785,3.7876,3.7888,3.789,3.7888,3.7896,3.7873,3.7861,3.788,3.788,3.788,3.788,3.788,3.788,3.7191,3.7248,3.7277,3.7354,3.7393,3.7451,3.7481,3.7522,3.7562,3.7633,3.7678,3.7712,3.7762,3.7823,3.7873,3.7886,3.7905,3.7905,3.7921,3.7898,3.7897,3.7896,3.7885,3.7909,3.7909,3.7941,3.7941,3.7941]}]]